Probability
0 0 0 0 0 0 0 0 0 0 0 0 0 0 0 0 0 0 0 0 0 0 0 0 0 0 1 2 3 3 3 3 3 3 3 3 1 0 0 0 0 0 0 0
0 0 0 0 0 0 0 0 0 0 0 0 0 0 0 0 0 0 0 0 0 0 0 0 0 0 1 2 3 3 3 3 3 3 4 3 2 0 0 0 0 0 0 0
0 0 0 0 0 0 0 0 0 0 0 0 0 0 0 0 0 0 0 0 0 0 0 0 0 0 1 2 3 3 3 3 3 4 5 4 2 0 0 0 0 0 0 0
0 0 0 0 0 0 0 0 0 0 0 0 0 0 0 0 0 0 0 0 0 0 0 0 0 0 0 1 2 3 3 3 3 4 5 5 3 1 0 0 0 0 0 0
0 0 0 0 0 0 0 0 0 0 0 0 0 0 0 0 0 0 0 0 0 0 0 0 0 0 0 0 1 2 3 3 3 4 6 6 5 3 1 0 0 0 0 0
0 0 0 0 0 0 0 0 0 0 0 0 0 0 0 0 0 0 0 0 0 0 0 0 0 0 0 0 0 1 2 3 4 5 6 6 6 3 1 0 0 0 0 0
0 0 0 0 0 0 0 0 0 0 0 0 0 0 0 0 0 0 0 0 0 0 0 0 0 0 0 0 0 0 1 2 4 5 6 6 5 3 1 0 0 0 0 0
0 0 0 0 0 0 0 0 0 0 0 0 0 0 0 0 0 0 0 0 0 0 0 0 0 0 0 0 0 0 0 1 2 3 4 4 4 3 1 0 0 0 0 0
0 0 0 0 0 0 0 0 0 0 0 0 0 0 0 0 0 0 0 0 0 0 0 0 0 0 0 0 0 0 0 0 1 1 2 2 2 1 1 0 0 0 0 0
0 0 0 0 0 0 0 0 0 0 0 0 0 0 0 0 0 0 0 0 0 0 0 0 0 0 0 0 0 0 0 0 0 0 1 1 1 0 0 0 0 0 0 0
0 0 0 0 0 0 0 0 0 0 0 0 0 0 0 0 0 0 0 0 0 0 0 0 0 0 0 0 0 0 0 0 0 0 0 0 0 0 0 0 0 0 0 0
0 0 0 0 0 0 0 0 0 0 0 0 0 0 0 0 0 0 0 0 0 0 0 0 0 0 0 0 0 0 0 0 0 0 0 0 0 0 0 0 0 0 0 0
0 0 0 0 0 0 0 0 0 0 0 0 0 0 0 0 0 0 0 0 0 0 0 0 0 0 0 0 0 0 0 0 0 0 0 0 0 0 0 0 0 0 0 0
0 0 0 0 0 0 0 0 0 0 0 0 0 0 0 0 0 0 0 0 0 0 0 0 0 0 0 0 0 0 0 0 0 0 0 0 0 0 0 0 0 0 0 0
0 0 0 0 0 0 0 0 0 0 0 0 0 0 0 0 0 0 0 0 0 0 0 0 0 0 0 0 0 0 0 0 0 0 0 0 0 0 0 0 0 0 0 0
0 0 0 0 0 0 0 0 0 0 0 0 0 0 0 0 0 0 0 0 0 0 0 0 0 0 0 0 0 0 0 0 0 0 0 0 0 0 0 0 0 0 0 0
0 0 0 0 0 0 0 0 0 0 0 0 0 0 0 0 0 0 0 0 0 0 0 0 0 0 0 0 0 0 0 0 0 0 0 0 0 0 0 0 0 0 0 0
0 0 0 0 0 0 0 0 0 0 0 0 0 0 0 0 0 0 0 0 0 0 0 0 0 0 0 0 0 0 0 0 0 0 0 0 0 0 0 0 0 0 0 0
0 0 0 0 0 0 0 0 0 0 0 0 0 0 0 0 0 0 0 0 0 0 0 0 0 0 0 0 0 0 0 0 0 0 0 0 0 0 0 0 0 0 0 0
0 0 0 0 0 0 0 0 0 0 0 0 0 0 0 0 0 0 0 0 0 0 0 0 0 0 0 0 0 0 0 0 0 0 0 0 0 0 0 0 0 0 0 0
0 0 0 0 0 0 0 0 0 0 0 0 0 0 0 0 0 0 0 0 0 0 0 0 0 0 0 0 0 0 0 0 0 0 0 0 0 0 0 0 0 0 0 0
0 0 0 0 0 0 0 0 0 0 0 0 0 0 0 0 0 0 0 0 0 0 0 0 0 0 0 0 0 0 0 0 0 0 0 0 0 0 0 0 0 0 0 0
0 0 0 0 0 0 0 0 0 0 0 0 0 0 0 0 0 0 0 0 0 0 0 0 0 0 0 0 0 0 0 0 0 0 0 0 0 0 0 0 0 0 0 0
0 0 0 0 0 0 0 0 0 0 0 0 0 0 0 0 0 0 0 0 0 0 0 0 0 0 0 0 0 0 0 0 0 0 0 0 0 0 0 0 0 0 0 0
0 0 0 0 0 0 0 0 0 0 0 0 0 0 0 0 0 0 0 0 0 0 0 0 0 0 0 0 0 0 0 0 0 0 0 0 0 0 0 0 0 0 0 0
0 0 0 0 0 0 0 0 0 0 0 0 0 0 0 0 0 0 0 0 0 0 0 0 0 0 0 0 0 0 0 0 0 0 0 0 0 0 0 0 0 0 0 0
Wind_Speed
3 4 2 3 3 1 3 3 3 4 2 2 5 8 7 4 3 4 4 4 4 4 3 1 0 0 1 1 1 0 1 0 1 1 1 1 1 0 0 0 1 0 0 0
3 2 3 2 2 1 0 1 3 3 2 1 4 8 7 5 5 5 5 5 4 3 2 2 1 1 1 1 1 1 1 1 1 1 1 1 1 0 0 1 1 1 1 0
4 2 2 3 1 1 3 3 3 3 4 2 4 7 4 3 2 3 3 4 3 4 3 2 1 1 0 1 1 1 1 1 0 0 1 1 1 1 0 1 1 2 1 1
2 2 1 1 2 3 4 2 2 2 1 3 1 5 6 3 3 4 5 4 4 3 3 2 2 1 1 2 1 1 1 0 0 1 1 2 1 1 1 1 1 1 1 1
3 1 1 3 3 3 2 0 0 1 2 2 1 3 8 2 4 7 6 6 5 4 3 2 2 2 1 0 0 1 1 0 0 1 2 2 1 1 1 1 1 1 1 1
1 1 2 2 0 2 2 3 3 3 2 3 4 5 8 4 6 5 4 4 4 3 2 2 1 0 1 1 1 1 0 1 1 1 1 2 2 2 1 1 1 1 1 1
2 1 1 1 2 1 2 3 3 4 2 6 2 5 10 6 4 4 5 5 3 2 2 2 1 1 0 0 0 1 0 1 1 1 1 2 2 3 3 2 2 2 1 2
3 4 3 2 3 5 4 4 5 5 5 5 2 8 8 4 3 3 3 3 2 2 2 2 2 1 1 1 1 1 1 1 1 1 1 1 1 1 2 2 2 2 2 2
5 4 0 1 0 4 4 3 2 4 1 3 6 7 9 2 2 2 2 1 2 3 3 2 2 1 1 1 1 1 1 2 1 1 1 1 1 1 1 1 1 1 1 2
5 3 1 1 1 2 2 5 3 4 3 4 6 5 6 3 4 3 2 2 3 2 3 2 2 2 1 1 1 1 1 2 2 1 1 1 1 1 1 1 1 1 2 1
3 3 1 0 4 5 3 3 3 3 3 4 5 8 5 5 4 4 4 4 4 3 3 3 2 2 1 1 1 1 1 1 1 1 2 1 1 1 1 1 1 1 1 1
3 4 2 4 2 1 3 5 6 5 5 4 4 9 2 3 3 3 4 3 3 3 3 2 2 1 1 1 1 1 1 2 2 1 1 1 1 1 1 1 1 1 1 1
5 5 1 3 2 1 2 3 4 3 3 4 5 10 2 2 2 2 3 3 3 2 2 1 1 2 2 2 2 2 2 2 2 1 1 1 1 1 1 2 1 1 1 1
4 4 6 8 6 5 4 4 5 6 5 6 10 11 8 5 5 4 4 3 3 2 2 2 2 2 2 2 2 2 2 2 1 1 1 1 1 1 1 1 1 1 1 1
3 3 4 4 2 2 5 7 9 11 10 10 10 11 13 7 6 5 4 3 3 3 3 3 3 3 3 2 2 2 2 2 1 1 1 2 1 1 1 1 1 1 1 1
2 3 1 3 2 3 7 10 11 12 10 11 10 14 11 5 3 3 4 4 4 4 4 3 3 3 3 3 2 2 2 2 2 2 2 2 1 1 1 1 1 1 1 1
3 5 3 3 2 3 10 12 13 9 9 9 13 14 5 4 5 5 5 5 5 5 4 3 3 3 3 2 2 3 3 2 1 2 2 1 1 1 1 1 1 1 1 1
6 5 3 1 2 9 10 3 8 9 9 10 9 7 5 6 4 3 4 4 5 4 3 3 3 2 2 1 1 1 1 1 1 1 1 1 1 1 1 1 1 1 1 1
5 7 4 3 4 11 9 3 5 7 8 9 11 9 5 1 2 4 3 3 4 3 2 2 2 1 1 1 1 0 0 0 0 1 2 2 1 1 1 1 1 1 1 1
2 4 5 4 4 10 7 2 3 3 7 5 8 8 4 2 1 5 2 1 1 1 0 0 0 1 1 1 1 1 1 0 1 2 2 2 1 1 1 2 1 1 1 1
4 4 6 6 7 12 7 2 4 5 7 2 5 5 5 6 6 3 1 1 1 1 0 1 1 1 0 1 1 1 0 2 3 2 2 2 1 1 1 1 0 0 0 1
10 9 8 7 7 14 4 6 9 7 1 2 3 4 4 5 3 1 1 1 1 0 1 1 1 1 1 1 1 0 1 2 2 2 1 1 1 1 0 0 0 0 0 0
9 10 8 12 12 4 6 8 5 2 3 3 3 3 3 3 3 2 2 2 1 1 0 1 1 1 2 1 1 0 2 2 2 2 1 1 1 1 1 0 0 0 0 0
5 3 4 6 10 6 6 5 4 3 3 2 2 2 3 3 3 2 2 1 1 0 0 1 1 0 2 2 2 1 2 2 1 1 1 1 1 1 1 1 0 0 1 1
7 6 5 7 7 4 5 7 6 4 3 2 2 3 4 4 3 3 2 2 1 0 0 0 0 1 2 2 2 2 2 1 1 1 1 1 1 1 1 1 1 1 1 2
7 9 10 10 7 6 6 4 5 5 5 4 3 2 1 3 3 2 2 1 1 1 0 0 0 1 2 2 2 2 2 0 0 1 1 1 1 1 1 1 2 3 2 3
Wind_Direction
47 79 181 218 199 187 166 182 243 263 288 260 247 263 270 260 246 253 256 251 253 264 285 291 264 117 107 95 106 135 133 150 157 172 175 181 207 253 5 10 38 63 77 112
62 246 230 156 142 94 146 230 262 290 328 284 281 278 268 245 231 229 235 239 244 276 322 327 351 77 142 179 185 174 193 209 217 217 205 191 182 172 113 26 4 350 327 248
175 242 181 144 127 180 257 222 238 270 325 328 319 298 274 271 244 248 242 237 238 233 244 260 277 265 229 223 223 215 221 232 247 218 146 105 81 47 16 347 332 337 339 327
220 287 142 155 208 181 253 244 226 248 314 298 4 291 284 275 284 263 253 245 244 243 238 239 240 251 247 245 238 226 224 242 218 158 147 155 171 219 248 261 273 321 333 332
231 205 161 207 227 178 215 73 152 250 193 290 262 242 284 328 283 266 251 240 241 240 231 233 234 229 253 290 258 247 207 227 208 176 174 171 175 207 248 288 292 302 305 302
239 217 191 201 103 144 121 68 49 45 75 264 226 202 274 241 240 264 252 239 234 230 234 241 259 215 31 33 19 1 190 240 226 202 192 185 184 182 186 270 281 280 284 287
288 262 262 135 102 72 95 94 33 355 340 255 215 215 250 247 239 240 253 247 235 216 214 224 241 251 278 1 337 316 267 265 242 216 221 211 206 197 203 222 240 265 277 270
195 255 218 192 175 173 190 158 164 205 237 276 262 237 251 256 269 272 259 246 221 213 215 217 228 237 248 256 274 286 265 273 260 233 246 237 221 211 222 229 235 240 252 258
185 239 344 181 181 146 154 195 162 131 94 279 264 276 292 269 306 308 294 294 234 223 222 227 230 227 235 239 241 242 259 287 279 263 261 249 233 223 235 243 236 243 258 271
165 217 265 290 81 5 161 149 119 143 178 261 282 265 254 265 265 281 286 268 265 249 238 234 230 232 238 241 263 267 253 264 284 287 272 274 258 250 238 227 254 271 276 274
155 163 287 134 192 191 145 152 151 153 177 188 266 269 225 219 225 236 248 253 255 246 238 234 234 237 243 277 275 279 289 300 305 302 303 292 280 273 254 245 259 266 274 274
166 141 224 242 245 229 192 187 164 175 223 208 236 269 281 231 241 229 244 253 256 243 237 234 231 239 251 269 279 274 275 274 272 276 283 289 309 318 303 285 280 279 279 279
150 136 88 337 325 298 235 215 198 166 147 187 210 262 303 343 317 278 262 266 270 264 256 257 239 241 247 252 264 273 264 267 274 268 265 282 304 318 305 303 305 303 292 298
128 157 185 210 226 185 216 222 196 175 195 220 228 255 280 290 287 287 275 261 260 258 251 248 248 248 250 248 248 258 269 268 271 253 239 258 273 275 282 307 314 311 310 313
129 194 223 253 269 214 225 224 205 209 212 218 241 245 261 261 250 251 248 250 260 268 266 255 247 247 246 248 252 259 271 275 268 252 252 263 280 285 297 319 315 318 326 320
136 173 163 280 278 262 262 245 222 228 231 238 259 265 262 269 248 247 243 237 244 253 257 261 252 244 241 245 254 266 268 267 249 239 256 276 297 312 311 308 307 325 336 334
162 149 155 255 315 339 265 229 208 210 212 204 232 248 264 271 257 247 245 238 238 249 252 255 256 251 251 250 250 251 257 261 236 240 262 282 294 294 292 298 315 316 321 336
160 146 153 177 61 246 248 200 196 211 230 220 235 253 245 245 266 261 238 224 242 250 250 253 251 256 265 271 272 266 274 253 237 249 276 295 290 288 310 310 300 305 324 320
176 155 148 157 231 272 285 240 179 197 252 223 227 246 251 264 354 302 246 218 226 234 238 240 243 238 260 292 303 6 340 333 284 284 287 284 271 272 286 289 293 308 329 318
120 147 150 163 203 245 252 212 173 136 268 235 210 231 227 134 237 261 253 212 231 220 183 151 57 69 40 351 32 68 0 347 285 279 281 278 260 240 243 257 280 326 327 306
157 172 189 194 227 258 252 209 134 179 249 235 197 210 184 194 219 228 186 206 183 154 113 101 99 88 357 14 68 84 351 298 295 302 303 300 288 261 251 272 326 2 359 353
177 177 191 175 214 249 203 154 188 215 211 183 192 198 195 216 231 220 216 213 185 175 110 106 94 20 4 31 82 71 301 311 334 331 320 314 315 308 316 53 27 52 87 345
202 194 187 195 216 236 176 196 214 183 198 208 200 206 195 211 223 223 223 211 211 178 145 92 89 8 357 14 72 259 307 337 347 344 324 317 334 348 347 122 118 51 97 269
235 205 190 235 250 241 228 232 233 208 210 216 203 193 186 208 219 225 221 220 204 167 130 85 90 351 327 351 12 317 318 350 353 327 321 329 341 346 349 327 241 213 225 252
206 177 201 243 259 282 252 226 227 225 218 219 217 203 197 196 220 218 212 217 213 237 351 110 168 265 302 337 346 341 345 15 357 322 318 325 321 305 316 320 297 263 249 240
191 185 192 223 216 207 236 222 207 209 220 214 206 217 203 188 202 202 209 208 197 197 168 169 269 271 298 321 321 332 345 18 149 307 310 305 301 299 302 316 331 330 314 313